Regional Weather Roundup
Issued by NWS Sterling, VA

Home | Current Version | Previous Version | Graphics & Text | Print | Product List | Glossary On
Versions: 1 2 3 4 5 6 7 8 9 10 11 12 13 14 15 16 17 18 19 20 21 22 23 24 25 26 27
000
ASUS41 KLWX 180110
RWRLWX

REGIONAL WEATHER ROUNDUP
NATIONAL WEATHER SERVICE BALTIMORE MD/WASHINGTON DC
800 PM EST TUE JAN 17 2017

Note: "FAIR" indicates few or no clouds below 12,000 feet
with no significant weather and/or obstructions to visibility.
 TC=TEMPERATURE CELSIUS

 * =Non NWS site. Station does not report precipitation (e.g. rain,
    snow, etc.), thunder, or fog.

DCZ001-MDZ009-015-VAZ040>042-051-053>054-180200-
WASHINGTON METRO

CITY           SKY/WX    TMP DP  RH WIND       PRES   REMARKS
WASHINGTON NAT DRIZZLE   49  48  97 NE3       29.96S FOG
DULLES         CLOUDY    52  50  93 S3        29.95S FOG
ANDREWS AFB    CLOUDY    54  52  94 W6        29.95R
FT BELVOIR     CLOUDY    50  48  93 CALM      29.95S FOG
QUANTICO       CLOUDY    56  54  93 SW7       29.97R
MANASSAS*      CLOUDY   N/A N/A N/A SW5       29.96S FOG
GAITHERSBURG*  CLOUDY    46  45  93 SE3       29.98F VSB 1/4

$$

MDZ006>007-011-014-180200-
BALTIMORE METRO

CITY           SKY/WX    TMP DP  RH WIND       PRES   REMARKS
BWI AIRPORT    FOG       44  44 100 CALM      29.96F VSB 3/4
MD SCIENCE CTR   N/A     45  43  93 MISG      29.97F
MARTIN STATE   FOG       45  45 100 CALM      29.98F VSB 3/4
ANNAPOLIS      CLOUDY    45  44  97 CALM      29.96F FOG
FORT MEADE*    CLOUDY    43  43 100 CALM      29.98F

$$

MDZ012-015-019>023-180200-
MARYLAND EASTERN SHORE

CITY           SKY/WX    TMP DP  RH WIND       PRES   REMARKS
OCEAN CITY     CLOUDY    47  47 100 SW7       29.99F
SALISBURY      CLOUDY    53  51  93 SW10      29.97F
BAY BRIDGE AP* CLOUDY    41  41 100 CALM      29.97F FOG
CAMBRIDGE*     CLOUDY    46  46 100 S7        29.96F
EASTON*        CLOUDY    52  48  87 S5        29.99S

$$

MDZ017>025-180200-
SOUTHERN MARYLAND

CITY           SKY/WX    TMP DP  RH WIND       PRES   REMARKS
PATUXENT RIVER CLOUDY    55  52  89 SW10      29.95S
ST INIGOES     CLOUDY    54  50  86 SW13      29.96F
LEONARDTOWN*   CLOUDY    54  50  87 SW14      29.97S

$$

MDZ003>005-180200-
NORTH CENTRAL MARYLAND

CITY           SKY/WX    TMP DP  RH WIND       PRES   REMARKS
FREDERICK*     NOT AVBL
HAGERSTOWN APT CLOUDY    39  37  92 N5        29.92S FOG
WESTMINSTER*   FOG       41  41 100 CALM      29.94S VSB 1/2

$$

MDZ501>502-180200-
WESTERN MARYLAND

CITY           SKY/WX    TMP DP  RH WIND       PRES   REMARKS
OAKLAND*         N/A     52  50  93 W17G25    29.89S
CUMBERLAND*    CLOUDY    41  41 100 CALM      29.95S

$$

VAZ025>031-180200-
SHENANDOAH VALLEY

CITY           SKY/WX    TMP DP  RH WIND       PRES   REMARKS
WINCHESTER*    FOG       41  41 100 CALM      29.91F VSB 1/4
FRONT ROYAL*   MOCLDY    45  45 100 CALM      29.91S
LURAY*         CLOUDY    55  54  94 SW12      29.92F
NEW MARKET*    CLOUDY    55  50  82 SW7       29.93S
STAUNTON*      CLOUDY    54  50  86 S7        29.97F
WAYNESBORO*    CLOUDY    56  51  81 SW9       29.96F

$$

WVZ021-048>050-054>055-180200-
EASTERN WEST VIRGINIA PANHANDLE

CITY           SKY/WX    TMP DP  RH WIND       PRES   REMARKS
MARTINSBURG    CLOUDY    40  38  93 N7        29.92F FOG
PETERSBURG*    CLOUDY    56  49  75 SE3       29.88F

$$

VAZ036>039-050-180200-
CENTRAL FOOTHILLS

CITY           SKY/WX    TMP DP  RH WIND       PRES   REMARKS
CHARLOTTESVILL PTCLDY    54  51  90 S9        29.97S
CULPEPER*      CLOUDY    54  52  93 SW10      29.96F
ORANGE*          N/A     55  54  94 S12G17    29.99F
GORDONSVILLE*  CLOUDY    55  52  92 SW14G20   29.97S
WARRENTON*     CLOUDY    55  50  84 SW6       29.95R

$$

VAZ055>057-180200-
NORTH AND CENTRAL PIEDMONT

CITY           SKY/WX    TMP DP  RH WIND       PRES   REMARKS
FREDERICKSBRG* MOCLDY    57  56  97 SW12G20   29.96S
STAFFORD*      CLOUDY    55  54  96 SW10      30.00S

$$

NCZ024-NYZ072-PAZ021-071-VAZ022-071-180200-
OTHER REGIONAL OBSERVATIONS

CITY           SKY/WX    TMP DP  RH WIND       PRES   REMARKS
NEW YORK CITY  LGT RAIN  39  38  96 VRB7      30.06F FOG
PHILADELPHIA   LGT RAIN  43  42  97 NE3       30.00F FOG
PITTSBURGH     MOCLDY    56  49  77 W12       29.86S
ROANOKE        CLOUDY    52  51  97 NW3       30.04F
RICHMOND       CLOUDY    56  53  90 SW13      30.02S
RALEIGH        CLOUDY    59  55  87 SW8       30.11R

$$

ANZ530>537-180200-
MARINE OBSERVATIONS

STATION/POSITION TIME  TEMP    WIND        PRES
                       AIR SEA DIR/SP/G
                 (UTC) (F)     (DEG/KT/KT) (MB)
THOMAS PT LIGHT  0100   43 39  280/  2/  2   N/A
BALT KEY BRIDGE  0048   43      20/  3/  4 1014.9F
COVE POINT       0048   48     170/  8/  9 1014.9S
LEWISETTA        0048   56 43  240/ 14/ 18 1014.5F
SOLOMONS ISLAND  0042   52 41  220/  9/ 12   N/A
PINEY POINT      0048          240/ 11/ 16   N/A

$$





USA.gov is the U.S. government's official web portal to all federal, state and local government web resources and services.